Saint Simons Island, GA

4:50 PM EDT on March 30, 2017 (GMT -0400)
McKinnon

Weather History for KSSI - March, 2013

Change the Weather History Date:

Wednesday, March 20, 2013

  Actual Average Record
Temperature  
Mean Temperature 55 °F 61 °F  
Max Temperature 62 °F 70 °F 87 °F (1982)
Min Temperature 47 °F 53 °F 35 °F (1956)
Degree Days  
Heating Degree Days 10 5  
Month to date heating degree days 205 133  
Since 1 July heating degree days 1120 1384  
Cooling Degree Days 0 1  
Month to date cooling degree days 2 19  
Year to date cooling degree days 30 28  
Growing Degree Days 6 (Base 50)    
Moisture  
Dew Point 42 °F    
Average Humidity 66    
Maximum Humidity 86    
Minimum Humidity 46    
Precipitation  
Precipitation T in 0.12 in 1.38 in (1959)
Month to date precipitation 0.42 2.58  
Year to date precipitation 4.53 9.27  
Snow  
Snow 0.00 in - 0.00 in ()
Month to date snowfall 0.0  
Since 1 July snowfall 0.0  
Snow Depth 0.00 in    
Sea Level Pressure  
Sea Level Pressure 29.97 in    
Wind  
Wind Speed 8 mph (NNE)    
Max Wind Speed 21 mph    
Max Gust Speed 30 mph    
Visibility 10 miles    
Events      
T = Trace of Precipitation, MM = Missing Value Source: NWS Daily Summary

Daily Weather History Graph

Daily Weather History Graph

Search for Another Location

Airport or City:

Trip Planner

Search our weather history database for the weather conditions in past years. The results will help you decide how hot, cold, wet, or windy it might be!

Date:

Astronomy

Mar. 20, 2013 Rise Set
Actual Time 7:29 AM EDT 7:37 PM EDT
Civil Twilight 7:04 AM EDT 8:01 PM EDT
Nautical Twilight 6:36 AM EDT 8:29 PM EDT
Astronomical Twilight 6:08 AM EDT 8:58 PM EDT
Moon 1:31 PM EDT (3/20) 2:46 AM EDT (3/20)
Length of Visible Light 12h 56m
Length of Day
12h 08m
First Quarter, 59% of the Moon is Illuminated
Mar 20
First Quarter
Mar 27
Full
Apr 3
Last Quarter
Apr 10
New
Apr 18
First Quarter

Hourly Weather History & Observations

Time (EDT) Temp. Dew Point Humidity Pressure Visibility Wind Dir Wind Speed Gust Speed Precip Events Conditions
12:53 AM 57.9 °F 42.1 °F 56% 30.01 in 10.0 mi North 5.8 mph - N/A   Clear
1:53 AM 57.0 °F 37.0 °F 47% 30.00 in 10.0 mi North 4.6 mph - N/A   Clear
2:53 AM 55.9 °F 36.0 °F 47% 29.99 in 10.0 mi NNE 4.6 mph - N/A   Clear
3:53 AM 54.0 °F 39.0 °F 57% 29.99 in 10.0 mi North 4.6 mph - N/A   Partly Cloudy
4:53 AM 54.0 °F 39.0 °F 57% 29.99 in 10.0 mi Calm Calm - N/A   Clear
5:53 AM 52.0 °F 42.1 °F 69% 30.00 in 10.0 mi Calm Calm - N/A   Mostly Cloudy
6:53 AM 54.0 °F 45.0 °F 72% 30.01 in 10.0 mi North 4.6 mph - N/A   Overcast
7:53 AM 57.9 °F 42.1 °F 56% 30.01 in 10.0 mi NE 12.7 mph - N/A   Clear
8:53 AM 59.0 °F 43.0 °F 55% 30.04 in 10.0 mi NNE 12.7 mph - N/A   Scattered Clouds
9:53 AM 60.1 °F 39.0 °F 46% 30.05 in 10.0 mi NNE 13.8 mph 23.0 mph N/A   Mostly Cloudy
10:53 AM 60.1 °F 41.0 °F 49% 30.06 in 10.0 mi NNE 15.0 mph 25.3 mph N/A   Mostly Cloudy
11:53 AM 60.1 °F 41.0 °F 49% 30.06 in 10.0 mi NNE 19.6 mph 26.5 mph N/A   Mostly Cloudy
12:53 PM 57.9 °F 42.1 °F 56% 30.06 in 10.0 mi North 12.7 mph 21.9 mph 0.00 in   Overcast
1:53 PM 57.9 °F 43.0 °F 58% 30.00 in 10.0 mi NE 16.1 mph 21.9 mph 0.00 in   Overcast
2:53 PM 60.1 °F 42.1 °F 51% 29.93 in 10.0 mi NE 18.4 mph 26.5 mph N/A   Clear
3:53 PM 61.0 °F 43.0 °F 52% 29.93 in 10.0 mi NE 15.0 mph - N/A   Clear
4:53 PM 57.9 °F 43.0 °F 58% 29.93 in 10.0 mi NNE 13.8 mph - N/A   Mostly Cloudy
5:53 PM 57.0 °F 42.1 °F 57% 29.93 in 10.0 mi NNE 10.4 mph - 0.00 in   Overcast
6:53 PM 55.9 °F 43.0 °F 62% 29.88 in 10.0 mi East 6.9 mph - N/A   Overcast
7:53 PM 55.9 °F 45.0 °F 67% 29.88 in 10.0 mi NE 3.5 mph - N/A   Clear
8:53 PM 55.0 °F 45.0 °F 69% 29.87 in 10.0 mi Calm Calm - N/A   Clear
9:53 PM 50.0 °F 45.0 °F 83% 29.88 in 10.0 mi NNW 4.6 mph - N/A   Clear
10:53 PM 51.1 °F 46.0 °F 83% 29.89 in 10.0 mi Calm Calm - N/A   Clear
11:53 PM 48.9 °F 45.0 °F 86% 29.89 in 10.0 mi West 3.5 mph - N/A   Clear